This demonstration page uses our WeatherBlox Daily Observations layout. Learn more.

Left ArrowRight Arrow

39.01783, -85.05884

Hourly Observations for August 11, 2015

Temp ( °F °C ) Dew Point ( °F °C ) Humidity (%) Winds ( mph kmh ) Pressure ( in mb ) Visibility ( mi km ) Precip ( " mm )
12:52 am 00:52 Mostly Cloudy with Mist and Fog 71 21.7 70 21.1 96 96 SW 3 6 29.84 1011 6 9.65604 N/A
1:52 am 01:52 Partly Cloudy with Mist and Fog 71 21.7 70 21.1 96 96 W 3 6 29.83 1010 4 6.43736 N/A
2:38 am 02:38 Mostly Cloudy with Mist and Fog 70 21 70 21 100 100 W 6 9 29.85 1011 2 3.21868 N/A
2:52 am 02:52 Mostly Cloudy with Mist and Fog 70 21.1 69 20.6 97 97 W 6 9 29.83 1010 1.5 2.41401 N/A
3:37 am 03:37 Partly Cloudy with Mist and Fog 70 21 70 21 100 100 NW 5 7 29.85 1011 2.5 4.02335 N/A
3:52 am 03:52 Mostly Clear with Mist and Fog 70 21.1 69 20.6 97 97 NW 5 7 29.85 1011 3 4.82802 N/A
4:52 am 04:52 Partly Cloudy with Mist and Fog 70 21.1 69 20.6 97 97 NNW 7 11 29.86 1011 4 6.43736 N/A
5:52 am 05:52 Partly Cloudy with Mist and Fog 71 21.7 69 20.6 94 94 NNW 7 11 29.87 1012 4 6.43736 N/A
6:24 am 06:24 Mostly Cloudy with Mist and Fog 72 22 70 21 94 94 NNW 6 9 29.88 1012 3 4.82802 N/A
6:52 am 06:52 Cloudy with Mist and Fog 71 21.7 68 20 90 90 NNW 7 11 29.89 1012 3 4.82802 N/A
7:07 am 07:07 Mostly Cloudy with Mist and Fog 70 21 68 20 94 94 NW 5 7 29.91 1013 2.5 4.02335 N/A
7:52 am 07:52 Mostly Cloudy with Mist and Fog 70 21.1 68 20 93 93 NW 7 11 29.92 1013 3 4.82802 N/A
7:55 am 07:55 Mostly Cloudy with Mist and Fog 70 21 68 20 94 94 NW 6 9 29.91 1013 3 4.82802 N/A
7:58 am 07:58 Mostly Cloudy with Mist and Fog 70 21 68 20 94 94 NW 6 9 29.91 1013 2.5 4.02335 N/A
8:26 am 08:26 Mostly Cloudy with Mist and Fog 72 22 68 20 88 88 NW 7 11 29.91 1013 2.5 4.02335 N/A
8:52 am 08:52 Mostly Cloudy with Mist and Fog 72 22.2 68 20 87 87 NNW 7 11 29.93 1014 2.5 4.02335 N/A
9:38 am 09:38 Cloudy with Mist and Fog 72 22 68 20 88 88 NNW 12 19 29.94 1014 4 6.43736 N/A
9:52 am 09:52 Cloudy with Mist and Fog 72 22.2 67 19.4 84 84 N 9 15 29.96 1014 5 8.0467 N/A
10:04 am 10:04 Cloudy with Haze 72 22 66 19 83 83 NNW 12 19 29.97 1015 5 8.0467 N/A
10:52 am 10:52 Cloudy with Haze 74 23.3 67 19.4 79 79 NNW 9 15 29.98 1015 6 9.65604 N/A
11:01 am 11:01 Cloudy with Haze 73 23 66 19 78 78 N 6 9 29.97 1015 6 9.65604 N/A
11:52 am 11:52 Cloudy with Haze 74 23.3 68 20 82 82 NNW 8 13 29.98 1015 6 9.65604 N/A
12:52 pm 12:52 Mostly Cloudy 76 24.4 68 20 77 77 NNW 9 15 29.98 1015 7 11.26538 N/A
1:52 pm 13:52 Partly Cloudy 79 26.1 67 19.4 67 67 N 9 15 29.97 1015 9 14.48406 N/A
2:52 pm 14:52 Partly Cloudy 80 26.7 66 18.9 62 62 NNW 13 20 29.98 1015 10 16.0934 N/A
3:52 pm 15:52 Mostly Cloudy 81 27.2 64 17.8 57 57 NNW 9 15 29.97 1015 10 16.0934 N/A
4:52 pm 16:52 Mostly Cloudy 82 27.8 65 18.3 56 56 N 9 15 29.96 1015 10 16.0934 N/A
5:52 pm 17:52 Mostly Cloudy 82 27.8 63 17.2 53 53 NNW 15 24 29.96 1015 10 16.0934 N/A
6:52 pm 18:52 Partly Cloudy 80 26.7 61 16.1 52 52 NNW 13 20 29.96 1015 10 16.0934 N/A
7:52 pm 19:52 Mostly Sunny 78 25.6 63 17.2 60 60 NNW 8 13 29.97 1015 10 16.0934 N/A
8:52 pm 20:52 Mostly Clear 75 23.9 63 17.2 66 66 NW 7 11 29.98 1015 10 16.0934 N/A
9:52 pm 21:52 Clear 73 22.8 63 17.2 71 71 NW 5 7 29.99 1016 10 16.0934 N/A
10:52 pm 22:52 Clear 71 21.7 63 17.2 76 76 NW 5 7 30 1016 10 16.0934 N/A
11:52 pm 23:52 Clear 69 20.6 63 17.2 81 81 NW 5 7 30.02 1017 10 16.0934 N/A

Powered by AerisWeather